Flag for Canada Weather past 2 weeks in Dawson Creek, British Columbia, Canada

Now
63 °F

Mild.


Feels Like: 63 °F
Forecast: 54 / 71 °F
Wind: 6 mph from Southeast

Location: Dawson Creek Airport

Current Time: Sep 21, 2014 at 10:22:28 PM

Latest Report: Sep 21, 2014 at 10:00 PM


Visibility: 9 mi

Pressure: 29.70 "Hg

Humidity: 45%

Dew point: 41 °F

Location of Dawson CreekLocation

Historic Weather in Dawson Creek — Graph

°F

Dawson Creek temperature yesterday

Maximum temperature yesterday: 72 °F (at 5:00 PM)
Minimum temperature yesterday: 39 °F (at 5:00 AM)
Average temperature yesterday: 60 °F

Past Weeks' High & Low Weather Summary

 TemperatureHumidityPressure
High82 °F (Sep 21, 2:00 PM)100% (Sep 7, 7:00 PM)30.71 "Hg (Sep 7, 7:00 PM)
Low23 °F (Sep 10, 6:00 AM)17% (Sep 21, 2:00 PM)29.52 "Hg (Sep 19, 12:00 AM)
Average49 °F66%30.06 "Hg
* Reported Sep 6 9:00 PM — Sep 21 9:00 PM, Dawson Creek, Weather by CustomWeather, © 2014

Note: Actual official high and low records may vary slightly from our data, if they occured in-between our weather recording intervals... More about our weather records

Advertising

Dawson Creek weather history for previous 24 hours

 ConditionsComfort  
Time TempWeatherWind HumidityBarometerVisibility
9:00 PM
Sep 21
63 °FMild.6 mph45%29.71 "Hg9 mi
8:00 PM66 °FMild.7 mph32%29.72 "Hg9 mi
7:00 PM66 °FMild.3 mph35%29.72 "Hg9 mi
6:00 PM75 °FMild.7 mph27%29.71 "Hg9 mi
5:00 PM82 °FPleasantly warm.9 mph19%29.70 "Hg9 mi
4:00 PM82 °FPleasantly warm.9 mph20%29.72 "Hg9 mi
3:00 PM82 °FPleasantly warm.7 mph20%29.74 "Hg9 mi
2:00 PM82 °FPleasantly warm.10 mph17%29.76 "Hg9 mi
1:00 PM81 °FPleasantly warm.6 mph20%29.78 "Hg9 mi
12:00 PM79 °FPleasantly warm.7 mph26%29.82 "Hg9 mi
11:00 AM73 °FMild.6 mph33%29.84 "Hg9 mi
10:00 AM64 °FMild.7 mph49%29.88 "Hg9 mi
9:00 AM59 °FRefreshingly cool.8 mph59%29.89 "Hg9 mi
8:00 AM52 °FCool.No wind77%29.92 "Hg9 mi
7:00 AM48 °FCool.3 mph82%29.93 "Hg9 mi
6:00 AM54 °FCool.3 mph72%29.93 "Hg9 mi
5:00 AM55 °FCool.10 mph67%29.94 "Hg9 mi
4:00 AM61 °FRefreshingly cool.8 mph55%29.95 "Hg9 mi
3:00 AM57 °FCool.8 mph63%29.97 "Hg9 mi
2:00 AM59 °FRefreshingly cool.2 mph59%29.98 "Hg9 mi
1:00 AM59 °FRefreshingly cool.5 mph59%29.99 "Hg9 mi
12:00 AM55 °FCool.2 mph67%30.01 "Hg9 mi
11:00 PM
Sep 20
59 °FRefreshingly cool.5 mph59%30.02 "Hg9 mi
10:00 PM59 °FRefreshingly cool.2 mph59%30.02 "Hg9 mi
Weather by CustomWeather, © 2014

See weather overviewHow to use our weather pages